Location: Ferchesar
(52.6477°N, 12.4298°E)
Time: 04:31:27
(UTC+01:00)

Vanguard 1 - Pass Details

Date: 07 December 2021
Orbit: 652 x 3830 km, 34.2° (Epoch: 21 January)

Event Time Altitude Azimuth Distance (km) Brightness Sun altitude
Exits shadow 00:49:46 24° 117° (ESE) 5,403 13.6 -58.6°
Drops below altitude 10° 00:55:33 10° 106° (ESE) 6,150 14.1 -58.2°
Sets 00:59:57 0° 100° (E) 6,835 14.5 -58.0°
